Location: Albany
(35.0000°S, 118.0000°E)
Time: 17:32:39
(UTC-04:00)

Daily predictions for brighter satellites

Satellite Brightness Start Highest point End
(mag) Time Altitude Azimuth Time Altitude Azimuth Time Altitude Azimuth
SL-16 R/B 4.4 14:35:57 10° SE 14:39:16 26° ESE 14:39:16 26° ESE
ATLAS CENTAUR Rocket 4.4 15:32:21 26° NNE 15:34:43 31° NE 15:54:33 10° E
Gbstr 26 Del rocket 4.4 15:43:56 74° SW 15:44:50 90° NW 15:53:04 10° NE
ATLAS CENTAUR R/B 2.8 15:52:08 42° SE 15:52:46 44° ESE 15:57:28 10° NE
ATLAS 2AS CENTAUR R/B 2.7 15:56:25 59° N 15:56:25 59° N 16:01:53 10° NNE
SL-08 ROCKET BODY 4.4 15:57:27 71° SSW 15:57:27 71° SSW 16:02:54 10° S
USA 267 4.3 16:03:26 10° SSE 16:08:58 30° SSW 16:09:34 29° SW
Cosmos 1603 3.5 16:03:44 10° SSW 16:09:25 90° WNW 16:15:02 10° NNE
OAO 1 4.5 16:09:28 72° NNE 16:09:28 72° NNE 16:14:58 10° E
Cosmos 2184 Rocket 3.9 16:08:29 57° NNW 16:09:54 79° W 16:16:23 10° S
Cosmos 1943 4.1 16:12:15 10° S 16:17:48 49° ESE 16:23:19 10° NE
Cosmos 2263 Rocket 2.2 16:21:16 33° N 16:23:53 76° ENE 16:29:33 10° SSE
SL-16 R/B 3.3 16:19:26 10° S 16:24:20 34° SW 16:24:20 34° SW
Delta 2 Rocket 3.4 16:26:10 65° ESE 16:26:10 65° ESE 16:29:44 10° E
Ariane Rocket 4.5 16:24:33 10° NE 16:29:14 38° ESE 16:33:58 10° S
Cosmos 1602 Rocket 4.4 16:29:56 10° S 16:34:15 51° E 16:38:31 10° NNE
Cosmos 1777 Rocket 4.1 16:34:32 16° N 16:38:42 80° ENE 16:44:00 10° SSE
USA 234 3.4 16:34:48 10° NE 16:41:19 73° SE 16:47:54 10° SW
Meteor 2-13 Rocket 4.4 16:38:02 26° NNW 16:41:29 56° W 16:47:29 10° S
Tiangong 1 3.0 16:41:44 20° S 16:41:51 20° S 16:44:09 10° ESE
Cosmos 1455 Rocket 3.8 16:42:47 36° SW 16:42:47 36° SW 16:46:13 10° S
Cosmos 2154 Rocket 3.9 16:37:54 10° N 16:44:11 81° W 16:50:35 10° S
CZ-4 R/B 4.4 16:42:21 10° ENE 16:45:03 18° ESE 16:47:48 10° SSE
Radarsat Rocket 4.3 16:43:01 10° N 16:49:19 60° WNW 16:56:35 10° SSW
OE (NEXTSAT) 4.4 17:03:00 31° NW 17:04:34 78° NE 17:08:09 10° ESE
Cosmos 1538 Rocket 4.0 17:03:40 10° SSW 17:09:03 63° WNW 17:14:22 10° N
Cosmos 923 Rocket 4.5 17:12:02 10° S 17:17:16 66° ESE 17:22:28 10° NNE
EO 1 Del DPAF 3.3 17:16:00 10° S 17:19:50 57° WSW 17:23:38 10° NNW
Lacrosse 5 2.9 17:15:05 10° NNW 17:19:57 47° NE 17:24:52 10° SE
PAYLOAD A 4.1 17:15:44 10° N 17:21:11 78° WNW 17:26:35 10° SSW
Cosmos 1842 3.6 17:17:53 10° S 17:21:56 72° E 17:25:54 10° NNE
MTI 4.1 17:18:45 10° S 17:21:59 46° WSW 17:25:10 10° NNW
CSL-04 Rocket 3.6 17:17:01 10° N 17:22:31 72° WNW 17:28:00 10° SSW
Cosmos 1666 2.9 17:19:10 10° NNW 17:22:56 48° W 17:26:45 10° S
CZ-3 R/B 4.1 17:11:40 14° W 17:28:28 28° NW 17:36:09 10° N
Cosmos 2341 Rocket 4.3 17:22:55 10° NNW 17:28:52 46° W 17:34:57 10° S
Cosmos 2218 Rocket 4.0 17:24:52 10° N 17:31:07 89° E 17:37:22 10° S
ATLAS CENTAUR R/B 3.1 17:28:36 12° WSW 17:31:30 19° WNW 17:34:58 10° NNW
Cosmos 773 Rocket 4.2 17:29:26 10° SSW 17:34:35 52° WNW 17:39:43 10° N
Cosmos 1743 4.2 17:34:08 10° WNW 17:36:50 19° WSW 17:39:36 10° SSW
USA 116 3.3 17:34:53 10° SSE 17:38:08 90° W 17:41:37 10° NNW
AQUARIUS 4.5 17:33:41 10° NNE 17:38:12 73° ESE 17:42:45 10° S
Cosmos 1606 Rocket 3.5 17:34:48 10° N 17:39:16 79° W 17:43:44 10° S
Cosmos 1844 Rocket 3.1 17:34:34 10° N 17:40:06 69° ENE 17:45:44 10° SSE
IDEFIX/ARIANE 42P 2.6 17:35:26 10° N 17:40:38 70° WNW 17:45:58 10° SSW
NOSS 3-4 (A) 3.7 17:36:56 10° SW 17:43:58 76° WNW 17:50:30 10° NNE
NOSS 3-4 (C) 3.7 17:37:03 10° SW 17:44:04 77° WNW 17:50:36 10° NNE
SJ-12 3.9 17:40:47 10° N 17:44:53 65° WNW 17:49:02 10° SSW
Meteor 2-9 Rocket 4.2 17:39:54 10° NNW 17:45:07 54° W 17:50:24 10° S
Lacrosse 4 Rocket 1.5 17:41:49 10° NNW 17:46:17 77° WSW 17:50:50 10° SSE
ATLAS 2A CENTAUR R/B 3.8 17:42:04 10° NW 17:46:49 20° N 17:49:08 10° NE
CZ-3B DEB 3.5 17:41:25 10° NW 17:47:46 89° SW 18:02:11 10° SE
IRS-1A Rocket 4.4 17:42:58 10° N 17:48:42 65° WNW 17:54:37 10° SSW
Cosmos 1484 Rocket 3.8 17:47:59 10° NNE 17:51:56 54° ESE 17:55:56 10° S
Cosmos 2228 3.4 17:49:47 10° N 17:54:11 73° E 17:58:40 10° S
Cosmos 2112 Rocket 4.1 17:49:35 10° SSW 17:54:57 85° WNW 18:00:18 10° NNE
